Date String (YYYY-MM-DD hh:mm:ss) UTC,Instrument flags,absolute air pressure of the measurement (hPa),sample flow rate (lpm),inlet stack bypass flow (lpm),air temperature of the measurement (°C),ambient temperature measured by the external sensor (°C),aerosol sample conditioner tube jacket temperature (°C),OPC LED temperature (°C),internal box temperature (°C),relative humidity of the measurement (%),span deviation,mass concentration of particles derived from Lorenz-Mie calculation of OPC scattering (μg/m³),mass concentration of particles derived from Lorenz-Mie calculation of OPC scattering (μg/m³),mass concentration of particles derived from Lorenz-Mie calculation of OPC scattering (μg/m³)
DateTimeUTC,F1_M11,P_M11,Q1_M11,Q2_M11,T1_M11,T2_M11,T3_M11,T4_M11,T5_M11,U1_M11,ZSPAN_M11,X2_M11,X0_M11,X1_M11
2024-05-07 22:00:00,SystemResetWarning,0817.4,5.00,000.00,023.2,022.4,000.0,031.4,024.9,016.0,0000.0,0001.56,0005.26,0000.81
2024-05-07 22:01:00,SystemResetWarning,0817.4,5.01,000.00,023.2,022.4,000.0,031.4,024.9,016.4,0000.0,0001.56,0005.31,0000.80
2024-05-07 22:02:00,SystemResetWarning,0817.3,5.01,000.00,023.2,022.4,000.0,031.4,024.9,016.3,0000.0,0001.52,0005.18,0000.79
2024-05-07 22:03:00,SystemResetWarning,0817.2,5.00,000.00,023.2,022.4,000.0,031.4,024.9,015.5,0000.0,0001.54,0005.25,0000.80
2024-05-07 22:04:00,SystemResetWarning,0817.2,4.99,000.00,023.2,022.4,000.0,031.4,024.9,015.3,0000.0,0001.49,0005.10,0000.78
2024-05-07 22:05:00,SystemResetWarning,0817.2,4.99,000.00,023.2,022.4,000.0,031.4,024.9,014.6,0000.0,0001.45,0004.91,0000.75
2024-05-07 22:06:00,SystemResetWarning,0817.2,5.01,000.00,023.2,022.4,000.0,031.4,024.9,015.5,0000.0,0001.43,0004.95,0000.72
2024-05-07 22:07:00,SystemResetWarning,0817.1,5.01,000.00,023.2,022.4,000.0,031.4,024.9,015.5,0000.0,0001.35,0004.79,0000.71
2024-05-07 22:08:00,SystemResetWarning,0817.0,5.00,000.00,023.1,022.4,000.0,031.4,024.9,015.4,0000.0,0001.35,0004.79,0000.70
2024-05-07 22:09:00,SystemResetWarning,0817.0,5.00,000.00,023.1,022.4,000.0,031.4,024.9,014.8,0000.0,0001.29,0005.50,0000.68
2024-05-07 22:10:00,SystemResetWarning,0817.0,5.00,000.00,023.1,022.4,000.0,031.4,024.8,014.8,0000.0,0001.21,0005.28,0000.66
2024-05-07 22:11:00,SystemResetWarning,0817.1,4.99,000.00,023.1,022.4,000.0,031.4,024.9,015.0,0000.0,0001.16,0003.59,0000.65
2024-05-07 22:12:00,SystemResetWarning,0817.0,4.99,000.00,023.1,022.4,000.0,031.4,024.9,014.8,0000.0,0001.19,0003.63,0000.64
2024-05-07 22:13:00,SystemResetWarning,0817.2,5.01,000.00,023.1,022.4,000.0,031.4,024.9,015.0,0000.0,0001.21,0003.73,0000.63
2024-05-07 22:14:00,SystemResetWarning,0817.2,5.00,000.00,023.1,022.4,000.0,031.4,024.9,015.1,0000.0,0001.19,0003.93,0000.61
2024-05-07 22:15:00,SystemResetWarning,0817.3,5.01,000.00,023.1,022.4,000.0,031.4,024.9,015.0,0000.0,0001.18,0004.45,0000.61
2024-05-07 22:16:00,SystemResetWarning,0817.3,5.00,000.00,023.2,022.4,000.0,031.4,024.9,014.9,0000.0,0001.20,0004.66,0000.62
2024-05-07 22:17:00,SystemResetWarning,0817.4,5.00,000.00,023.2,022.4,000.0,031.4,024.9,014.6,0000.0,0001.15,0004.56,0000.62
2024-05-07 22:18:00,SystemResetWarning,0817.3,4.99,000.00,023.2,022.4,000.0,031.4,024.9,014.9,0000.0,0001.14,0004.53,0000.60
2024-05-07 22:19:00,SystemResetWarning,0817.3,5.00,000.00,023.1,022.4,000.0,031.5,024.9,015.1,0000.0,0001.10,0004.37,0000.60
2024-05-07 22:20:00,SystemResetWarning,0817.4,5.01,000.00,023.1,022.3,000.0,031.5,024.9,015.4,0000.0,0001.14,0003.29,0000.60
2024-05-07 22:21:00,SystemResetWarning,0817.4,5.01,000.00,023.1,022.3,000.0,031.5,024.9,015.6,0000.0,0001.20,0004.29,0000.62
2024-05-07 22:22:00,SystemResetWarning,0817.4,5.01,000.00,023.1,022.4,000.0,031.5,024.9,015.9,0000.0,0001.26,0005.21,0000.62
2024-05-07 22:23:00,SystemResetWarning,0817.3,5.00,000.00,023.2,022.4,000.0,031.5,024.9,015.9,0000.0,0001.24,0005.12,0000.63
2024-05-07 22:24:00,SystemResetWarning,0817.4,4.99,000.00,023.2,022.4,000.0,031.5,024.9,015.9,0000.0,0001.20,0004.97,0000.63
2024-05-07 22:25:00,SystemResetWarning,0817.3,4.99,000.00,023.2,022.4,000.0,031.4,024.9,016.0,0000.0,0001.19,0004.67,0000.63
2024-05-07 22:26:00,SystemResetWarning,0817.3,5.01,000.00,023.2,022.4,000.0,031.4,024.9,016.2,0000.0,0001.20,0004.12,0000.63
2024-05-07 22:27:00,SystemResetWarning,0817.2,5.01,000.00,023.2,022.5,000.0,031.5,025.0,016.7,0000.0,0001.20,0004.07,0000.62
2024-05-07 22:28:00,SystemResetWarning,0817.1,5.00,000.00,023.2,022.5,000.0,031.5,025.0,017.1,0000.0,0001.21,0004.02,0000.62
2024-05-07 22:29:00,SystemResetWarning,0817.1,5.01,000.00,023.2,022.5,000.0,031.5,025.0,016.9,0000.0,0001.19,0003.98,0000.62
2024-05-07 22:30:00,SystemResetWarning,0817.1,4.99,000.00,023.2,022.5,000.0,031.5,025.0,016.9,0000.0,0001.19,0003.99,0000.62
2024-05-07 22:31:00,SystemResetWarning,0817.0,4.99,000.00,023.2,022.5,000.0,031.5,025.0,016.7,0000.0,0001.13,0004.19,0000.60
2024-05-07 22:32:00,SystemResetWarning,0817.0,5.00,000.00,023.2,022.5,000.0,031.5,025.0,016.8,0000.0,0001.07,0003.36,0000.59
2024-05-07 22:33:00,SystemResetWarning,0816.9,5.01,000.00,023.2,022.6,000.0,031.5,025.0,016.7,0000.0,0001.01,0002.35,0000.58
2024-05-07 22:34:00,SystemResetWarning,0816.9,4.99,000.00,023.3,022.6,000.0,031.5,025.0,016.7,0000.0,0000.96,0002.33,0000.55
2024-05-07 22:35:00,SystemResetWarning,0816.9,4.99,000.00,023.3,022.6,000.0,031.5,025.0,016.2,0000.0,0000.92,0002.28,0000.53
2024-05-07 22:36:00,SystemResetWarning,0816.9,5.00,000.00,023.3,022.6,000.0,031.5,025.0,016.0,0000.0,0000.84,0002.16,0000.50
2024-05-07 22:37:00,SystemResetWarning,0816.9,5.00,000.00,023.3,022.6,000.0,031.5,025.0,016.0,0000.0,0000.79,0002.06,0000.47
2024-05-07 22:38:00,SystemResetWarning,0817.0,5.00,000.00,023.3,022.6,000.0,031.5,025.0,016.1,0000.0,0000.73,0001.85,0000.44
2024-05-07 22:39:00,SystemResetWarning,0817.0,5.00,000.00,023.3,022.6,000.0,031.5,025.0,016.4,0000.0,0000.74,0001.90,0000.43
2024-05-07 22:40:00,SystemResetWarning,0817.1,5.01,000.00,023.3,022.6,000.0,031.5,025.0,016.2,0000.0,0000.75,0001.95,0000.41
2024-05-07 22:41:00,SystemResetWarning,0817.1,5.01,000.00,023.3,022.6,000.0,031.6,025.1,016.1,0000.0,0000.75,0001.97,0000.40
2024-05-07 22:42:00,SystemResetWarning,0817.1,5.01,000.00,023.3,022.6,000.0,031.6,025.1,015.9,0000.0,0000.73,0001.69,0000.39
2024-05-07 22:43:00,SystemResetWarning,0817.1,4.99,000.00,023.3,022.6,000.0,031.6,025.1,015.6,0000.0,0000.72,0001.69,0000.37
2024-05-07 22:44:00,SystemResetWarning,0817.1,4.99,000.00,023.3,022.7,000.0,031.6,025.1,015.8,0000.0,0000.70,0001.58,0000.35
2024-05-07 22:45:00,SystemResetWarning,0817.1,5.00,000.00,023.4,022.7,000.0,031.6,025.1,015.5,0000.0,0000.63,0001.37,0000.33
2024-05-07 22:46:00,SystemResetWarning,0817.2,5.00,000.00,023.4,022.7,000.0,031.6,025.1,015.5,0000.0,0000.62,0001.82,0000.32
2024-05-07 22:47:00,SystemResetWarning,0817.2,5.01,000.00,023.4,022.7,000.0,031.6,025.1,015.5,0000.0,0000.64,0002.97,0000.31
2024-05-07 22:48:00,SystemResetWarning,0817.2,5.00,000.00,023.4,022.7,000.0,031.6,025.1,015.3,0000.0,0000.65,0003.60,0000.31
2024-05-07 22:49:00,SystemResetWarning,0817.2,4.99,000.00,023.4,022.8,000.0,031.6,025.2,015.3,0000.0,0000.70,0004.94,0000.31
2024-05-07 22:50:00,SystemResetWarning,0817.2,5.00,000.00,023.4,022.8,000.0,031.6,025.2,015.4,0000.0,0000.65,0005.00,0000.30
2024-05-07 22:51:00,SystemResetWarning,0817.3,5.00,000.00,023.4,022.8,000.0,031.6,025.2,015.2,0000.0,0000.63,0005.94,0000.29
2024-05-07 22:52:00,SystemResetWarning,0817.4,4.99,000.00,023.4,022.8,000.0,031.6,025.2,015.3,0000.0,0000.59,0005.86,0000.28
2024-05-07 22:53:00,SystemResetWarning,0817.4,5.00,000.00,023.4,022.8,000.0,031.6,025.2,015.2,0000.0,0000.57,0005.80,0000.27
2024-05-07 22:54:00,SystemResetWarning,0817.4,5.00,000.00,023.5,022.8,000.0,031.6,025.2,015.2,0000.0,0000.54,0005.62,0000.26
2024-05-07 22:55:00,SystemResetWarning,0817.3,5.00,000.00,023.5,022.8,000.0,031.6,025.3,015.0,0000.0,0000.57,0005.68,0000.27
2024-05-07 22:56:00,SystemResetWarning,0817.4,5.00,000.00,023.5,022.9,000.0,031.6,025.3,015.0,0000.0,0000.58,0005.73,0000.27
2024-05-07 22:57:00,SystemResetWarning,0817.4,5.00,000.00,023.5,022.9,000.0,031.6,025.2,015.2,0000.0,0000.55,0006.87,0000.27
2024-05-07 22:58:00,SystemResetWarning,0817.4,5.00,000.00,023.5,022.9,000.0,031.6,025.3,014.9,0000.0,0000.54,0006.44,0000.27
2024-05-07 22:59:00,SystemResetWarning,0817.4,5.00,000.00,023.5,022.9,000.0,031.6,025.3,014.5,0000.0,0000.52,0005.99,0000.27
